User: anonymous   Login
Location: Mascot Post Office (historical)
(40.2645°N, 99.5462°W)
Time: 07:06:07
(UTC+00:00)
Language:

SL-8 Rocket - Orbit

View from above orbital plane
View from above orbital plane
View from above satellite
View from above satellite

Ground track
Ground track

The orbit data is extracted from the following two-line orbital elements,

1 21088U 91006B   20273.12600976  .00000063  00000-0  48454-4 0  9998
2 21088  82.9452 208.1339 0021882 197.6530 173.2700 13.77147301490758
Epoch (UTC): 29 September 2020 03:01:27
Eccentricity: 0.0021882
inclination: 82.9452°
perigee height: 958 km
apogee height: 990 km
right ascension of ascending node: 208.1339°
argument of perigee: 197.6530°
revolutions per day: 13.77147301
mean anomaly at epoch: 173.2700°
orbit number at epoch: 49075

The dashed part of the orbit path shows where the satellite is in the earth's shadow,  

DLR